Location: Huppendorf
(49.9333°N, 11.1500°E)
Time: 04:46:28
(UTC+00:00)

H-2A R/B - Pass Details

Date: 27 February 2020
Orbit: 733 x 837 km, 98.2° (Epoch: 02 April)

Event Time Altitude Azimuth Distance (km) Brightness Sun altitude
Rises 20:04:09 0° 206° (SSW) 3,348 5.3 -30.8°
Reaches altitude 10° 20:07:03 10° 222° (SW) 2,433 4.7 -31.2°
Maximum altitude 20:11:07 21° 271° (W) 1,779 4.4 -31.8°
Drops below altitude 10° 20:15:14 10° 320° (NW) 2,462 5.4 -32.3°
Sets 20:18:12 0° 336° (NNW) 3,401 6.1 -32.7°
